Weather Roundup
Issued by NWS

Home | Current Version | Previous Version | Text Only | Print | Product List | Glossary On
Versions: 1 2 3 4 5 6 7 8 9 10 11 12 13 14 15 16 17 18 19 20 21 22 23 24 25 26 27 28 29 30 31 32 33 34 35 36 37 38 39 40 41 42 43 44 45 46 47 48 49 50
000
NZUS93 KARX 240810
HRRWXR

CURRENT HOURLY OBSERVATIONS ACROSS
MUCH OF THE UPPER MISSISSIPPI VALLEY
NATIONAL WEATHER SERVICE LA CROSSE WI
200 AM CST WED JAN 24 2018


...SOUTHEAST MINNESOTA...


CITY           SKY/WX    TMP DP  RH WIND       PRES   REMARKS
ROCHESTER      FAIR      13  11  92 W7        30.18R WCI   3
ROCHESTER/MAYO FAIR      15  13  92 CALM      30.20R
WINONA         FAIR      14  12  92 NW3       30.22R
AUSTIN         FAIR      18  16  93 NW5       30.19R WCI  11
ALBERT LEA     FAIR      18  16  93 W5        30.19R WCI  11
DODGE CENTER   LGT SNOW   9   7  92 CALM      30.18R VSB 3/4
PRESTON        MOCLDY    15  13  90 NW5       30.19R WCI   8
OWATONNA       FAIR      10   7  85 CALM      30.19S FOG
FARIBAULT      FAIR       7   5  92 CALM      30.20R
$$

...ELSEWHERE IN MINNESOTA...


CITY           SKY/WX    TMP DP  RH WIND       PRES   REMARKS
MINNEAPOLIS    CLOUDY    15  11  83 CALM      30.20S
INTNL FALLS    CLOUDY    11   1  64 SE3       30.13S
DULUTH         FAIR       4  -2  76 CALM      30.13S
RED WING       FAIR       9   3  78 CALM      30.21S
REDWOOD FALLS  CLOUDY    24  21  88 NW8       30.20S WCI  15
MANKATO        CLOUDY    17  15  92 W5        30.22R WCI  10
WORTHINGTON    CLOUDY    24  22  91 N10       30.19R WCI  14
FAIRMONT       CLOUDY    22  20  92 W6        30.21S WCI  14
$$

...SOUTHWEST WISCONSIN...


CITY           SKY/WX    TMP DP  RH WIND       PRES   REMARKS
LA CROSSE      FAIR      20  17  88 CALM      30.22R
PRAIRIE DU CHI CLOUDY    24  16  70 NW6       30.21S WCI  17
BOSCOBEL       CLOUDY    26  19  74 CALM      30.21S
LONE ROCK      CLOUDY    25  20  81 NW5       30.21R WCI  19
PLATTEVILLE    CLOUDY    24  23  93 N3        30.19S
FORT MC COY    CLOUDY    21  19  91 CALM      30.22R
MAUSTON-NEW LI CLOUDY    23  19  85 NW5       30.19R WCI  17
VIROQUA        CLOUDY    21  20  95 CALM      30.17R
WIS DELLS      CLOUDY    23  19  83 CALM      30.19R
$$

...ELSEWHERE IN WISCONSIN...


CITY           SKY/WX    TMP DP  RH WIND       PRES   REMARKS
MILWAUKEE      CLOUDY    28  23  81 W7        30.17R WCI  21
MADISON        CLOUDY    24  19  81 NW6       30.19R WCI  17
GREEN BAY      FAIR      17  11  77 N7        30.20R WCI   8
EAU CLAIRE     FAIR      10   8  92 CALM      30.19S
BLACK RVR FLS  CLOUDY    20  17  85 CALM      30.20R
MEDFORD        FAIR      10   8  92 CALM      30.14R
WAUSAU         FAIR      17  11  77 N3        30.14S
WIS RAPIDS     FAIR      16  11  80 CALM      30.18S
MARSHFIELD     FAIR      15  11  83 N5        30.15R WCI   8
RICE LAKE      FAIR       2  -1  86 CALM      30.19F
$$

...NORTHEAST IOWA...


CITY           SKY/WX    TMP DP  RH WIND       PRES   REMARKS
WATERLOO       CLOUDY    22  19  89 NW5       30.22R WCI  16
DUBUQUE        CLOUDY    22  17  81 N6        30.18S WCI  14
DECORAH        CLOUDY    19  18  93 CALM      30.18R
MASON CITY     CLOUDY    16  14  92 W9        30.21R WCI   4
CHARLES CITY   CLOUDY    21  23 100 W6        30.21R WCI  14
OELWEIN        CLOUDY    21  21 100 W6        30.21R WCI  14
$$

...ELSEWHERE IN IOWA...


CITY           SKY/WX    TMP DP  RH WIND       PRES   REMARKS
DES MOINES     CLOUDY    25  21  85 W5        30.23R WCI  19
IOWA CITY      FAIR      25  17  72 NW7       30.25R WCI  17
FORT DODGE     CLOUDY    23  20  88 W5        30.23R WCI  17
MARSHALLTOWN   LGT SNOW  24  21  88 NW9       30.22R FOG     WCI  14
CEDAR RAPIDS   CLOUDY    24  19  81 NW8       30.21R WCI  15
$$

...NORTHERN ILLINOIS...


CITY           SKY/WX    TMP DP  RH WIND       PRES   REMARKS
CHICAGO-OHARE  CLOUDY    28  21  75 NW7       30.18R WCI  21
CHICAGO-MIDWAY FLURRIES  29  23  78 W6        30.18R WCI  23
MOLINE         CLOUDY    26  18  71 W9        30.22R WCI  17
ROCKFORD       FLURRIES  27  22  81 W5        30.19R WCI  22
PEORIA         CLOUDY    27  20  75 NW8       30.22S WCI  19
$$

NOTE: "FAIR" INDICATES FEW OR NO CLOUDS BELOW 12,000 FEET WITH NO
SIGNIFICANT WEATHER AND/OR OBSTRUCTIONS TO VISIBILITY. WIND
SPEEDS ARE IN MILES-PER-HOUR.




USA.gov is the U.S. government's official web portal to all federal, state and local government web resources and services.